Location: Miles
(41.4492°N, 81.6087°W)
Time: 22:05:14
(UTC+00:00)

Explorer 11/Cluster Stage 4 - Pass Details

Date: 18 September 2024
Orbit: 464 x 1208 km, 28.8° (Epoch: 06 October)

Event Time Altitude Azimuth Distance (km) Brightness Sun altitude
Exits shadow 09:31:34 - 186° (S) 2,603 9.0 -18.9°
Reaches altitude 10° 09:33:29 10° 168° (SSE) 2,396 9.0 -18.6°
Maximum altitude 09:35:03 11° 152° (SSE) 2,392 9.2 -18.3°
Drops below altitude 10° 09:36:42 10° 136° (SE) 2,548 9.5 -18.0°
Sets 09:41:51 0° 104° (ESE) 3,716 11.0 -17.1°
